SDO

Last updated on Tue Sep 15 2026 00:03:09 GMT+0000 (Coordinated Universal Time)

1 36395U 10005A 26257.49503465 -.00000071 00000+0 00000+0 0 9997 2 36395 34.8356 84.9826 0001617 74.0463 271.0397 1.00275054 60956
UTC large
Height (km)
Speed (km/s)
/
Latitude / Longitude
Inclination (degrees)
Orbital Period (minutes)
Azimuth
Elevation
Range (km)
Doppler Factor

Next 0 passes for location: London (51.5072 / 0.1276)

No passes found over London.
SDO